STARLINK-32706, 62308

Orbit data source: Space-Track

STARLINK-32706, 62308 is a payload satellite owned by SpaceX/Seattle (US) in LEO that was launched on Fri, 13 Dec 2024 UTC via an FALCON 9 launch vehicle from the Air Force Western Test Range (AFWTR). Payload-class satellites include a variety of spacecraft equipped with specific instruments for various scientific and technological missions. These include communications satellites like Starlink; space stations such as the ISS; scientific satellites like the Hubble; Earth observation satellites from companies like Planet Labs, Umbra, and HawkEye 360; GPS; miniature CubeSats for education and research; and military/defense satellites.

Loading next visibility...
Identifier
62308, 2024-239H
Orbit
LEO
Country
Flag of USUS
Related business
Manufacturer
SpaceX/Seattle
Mission
Operational Commercial Communications
Bus & Motor
STARLINK V2M, Unknown motor
Mass
730 kg wet, ~700 kg dry
Launch date (UTC)
2024-12-13 (2 years ago)
Launch vehicle
FALCON 9
Launch site
Air Force Western Test Range (AFWTR)
Object type
Payload
Rocket body
Debris
Shape & HBR
Box + 2 Pan, 17.7 m
Radar Cross Section
33.884 m², Large (>1 m²)

Expand to show TLE details & history
Last TLE update: 22 hours ago

TLE from 22 hours ago
0 STARLINK-32706
1 62308U 24239H   26170.94479596  .00028651  00000-0  85563-3 0  9990
2 62308  53.1610  78.6749 0001396  83.0575 277.0586 15.34408757 85041
Epoch: 2026-06-19T22:40Z
TLE epoch observation values (Epoch: 2026-06-19T22:40:30.370Z)
Latitude
-0.00008°
Longitude
-169.6182°
Altitude
463.461 km
Speed
7.636 km/s
True Right ascension
05h 14m 41s
True Declination
0° 00' 00"
Sunlit
Object was in daylight at epoch
Visualization orbit readout
Latitude
Unknown
Longitude
Unknown
Altitude
Unknown
Speed
Unknown
Apparent Right ascension
Unknown
Apparent Declination
Unknown
Sunlit
N/A
Visualization observer readout
Local Sidereal Time
07:22:01
Azimuth
Unknown
Elevation
Unknown
Doppler factor
Unknown
Orbital elements
Apogee altitude
463.889 km
Perigee altitude
461.979 km
Semi-major axis
6,841.071 km
Eccentricity
0.00014
Inclination
53.161°
RAAN
78.6749°
Arg. of periapsis
83.0575°
True anomaly
277.04272°
Mean anomaly
277.0586°
Eccentric anomaly
277.05066°
Mean motion
3.83581 °/min
Orbital period
93.85 mins
BSTAR
0.00085563
Loading maneuver chart data...
Computing Atmospheric mass density...
Loading historical data...
Loading historical data...
Loading historical data...
Loading historical data...
Loading historical data...
Loading historical data...
Loading historical data...

Documentation

Showing up to 5 results
|